Find Kosmos-1435

NORAD ID: 13767 Int'l Des: 1983-002 Owner: GUKOS Country: SU operational
LEOCIRCULAR

Aktuelle Ansicht

3D-Globus wird geladen...

Über Kosmos-1435

Beschreibung wird geladen...

Nächste Überflüge

Passes for default location (London). Set your location on the main map for personalized predictions.

Höhenverlauf

Loading altitude history...

Zweizeiliger Elementsatz

1 13767U 83002G 26150.07501432 -.00000022 00000-0 -35297-4 0 9999
2 13767 74.0216 129.1375 0034236 182.0164 244.3390 12.55713360987466
Epoch: 30. Mai 2026 • Age: 15 hours

Aktueller Status

Höhe 1448.7 km
Geschwindigkeit 7.15 km/s
Subsatellitenpunkt 71.58°N, 102.11°E
Startdatum 19. Jan. 1983
Alter 43.3 years
Typ other

Technische Details

Klassifizierung Payload
Masse 60.00 kg
Trockenmasse 60.00 kg
Gesamtmasse 60.00 kg
Länge 0.80 m
Durchmesser 0.80 m
Spannweite 0.80 m
Form Poly
Hersteller NPOPM
Bus-Typ Strela-1 11F625
Phasenstatus In Orbit
Besitzer/Staat GUKOS/SU

Most Searched